Location: Lafig�re
(44.4503°N, 4.0357°E)
Time: 10:00:03
(UTC+00:00)

Cosmos 2150 Rocket - Visible Passes

Search period start: 17 January 2021 00:00
Search period end: 27 January 2021 00:00
Orbit: 749 x 807 km, 74.0° (Epoch: 16 January)

Date Brightness Start Highest point End Pass type
(mag) Time Alt. Az. Time Alt. Az. Time Alt. Az.
17 Jan 6.7 05:06:57 10° NNE 05:09:12 13° NE 05:11:28 10° ENE visible
18 Jan 5.0 06:13:18 10° N 06:18:26 48° ENE 06:23:37 10° SE visible
19 Jan 5.7 05:39:34 10° N 05:44:19 32° ENE 05:49:06 10° ESE visible
20 Jan 6.3 05:06:01 10° N 05:10:07 22° NE 05:14:14 10° ESE visible
21 Jan 6.6 04:32:45 10° NNE 04:35:49 15° NE 04:38:54 10° E visible
21 Jan 4.1 06:13:31 10° NNW 06:18:53 90° E 06:24:17 10° SSE visible
22 Jan 6.9 04:00:35 10° NE 04:01:25 10° NE 04:02:16 10° NE visible
22 Jan 4.6 05:39:37 10° NNW 05:44:54 59° ENE 05:50:13 10° SE visible
23 Jan 5.4 05:05:50 10° N 05:10:49 39° ENE 05:15:51 10° SE visible
24 Jan 6.0 04:32:11 10° N 04:36:40 26° ENE 04:41:10 10° ESE visible
24 Jan 4.4 06:14:03 10° NNW 06:19:10 47° WSW 06:24:19 10° S visible
24 Jan 6.2 19:12:49 10° S 19:13:19 13° S 19:13:19 13° S visible
25 Jan 6.5 03:58:53 10° N 04:02:25 18° NE 04:06:06 10° E visible
25 Jan 4.0 05:39:57 10° NNW 05:45:18 74° WSW 05:50:41 10° SSE visible
25 Jan 5.5 18:39:29 10° SSE 18:41:20 20° SE 18:41:20 20° SE visible
25 Jan 6.6 20:21:23 10° SW 20:21:55 13° SW 20:21:55 13° SW visible
26 Jan 6.8 03:26:03 11° NNE 03:28:04 13° NE 03:30:23 10° ENE visible
26 Jan 4.2 05:06:34 13° NNW 05:11:21 73° ENE 05:16:45 10° SSE visible
26 Jan 5.4 18:06:37 10° SE 18:09:23 19° ESE 18:09:23 19° ESE visible
26 Jan 5.3 19:46:58 10° SW 19:49:57 33° SW 19:49:57 33° SW visible
